Location: Newark
(46.2358°N, 112.1211°W)
Time: 00:43:55
(UTC+00:00)

Gurwin Techsat 1B - Visible Passes

Search period start: 07 July 2020 00:00
Search period end: 17 July 2020 00:00
Orbit: 811 x 814 km, 98.7° (Epoch: 06 July)

Date Brightness Start Highest point End Pass type
(mag) Time Alt. Az. Time Alt. Az. Time Alt. Az.
07 Jul 10.2 08:35:07 10° NE 08:39:32 26° E 08:42:40 16° SE visible
07 Jul 9.1 10:14:35 10° N 10:19:40 47° WNW 10:23:52 15° SW visible
08 Jul 10.7 08:13:04 10° NE 08:16:24 17° E 08:19:28 11° SE visible
08 Jul 8.7 09:51:34 10° N 09:56:54 73° WNW 10:00:40 20° SSW visible
09 Jul 8.7 09:28:41 10° NNE 09:34:01 74° ESE 09:37:29 23° S visible
10 Jul 9.3 09:05:57 10° NNE 09:11:05 47° E 09:14:16 22° SSE visible
10 Jul 9.9 10:46:21 10° N 10:50:47 27° WNW 10:55:11 10° WSW visible
11 Jul 10.0 08:43:24 10° NE 08:48:05 30° E 08:51:05 18° SE visible
11 Jul 9.3 10:23:09 10° N 10:28:06 40° WNW 10:32:17 14° SW visible
12 Jul 10.5 08:21:09 10° NE 08:24:58 20° E 08:27:53 13° SE visible
12 Jul 8.8 10:00:04 10° N 10:05:20 62° WNW 10:09:06 19° SSW visible
13 Jul 10.9 07:59:41 10° ENE 08:01:48 12° E 08:03:54 10° ESE visible
13 Jul 8.6 09:37:08 10° NNE 09:42:30 86° ESE 09:45:54 23° SSW visible
14 Jul 9.0 09:14:20 10° NNE 09:19:36 56° E 09:22:41 24° S visible
14 Jul 10.1 10:55:00 10° N 10:59:09 24° WNW 11:03:18 10° WSW visible
15 Jul 9.7 08:51:43 10° NNE 08:56:36 36° E 08:59:29 21° SSE visible
15 Jul 9.5 10:31:42 10° N 10:36:30 35° WNW 10:40:41 13° SW visible
16 Jul 10.3 08:29:20 10° NE 08:33:32 23° E 08:36:17 16° SE visible
16 Jul 9.0 10:08:35 10° N 10:13:46 53° WNW 10:17:29 19° SW visible
